sat.trackr.live / text

‹ back to catalog

JACK K

NORAD 66659 · 2025-274K

PAYLOAD ACTIVE UNKNOWN

§ Identity

Operator
Country
SKOR
Launch date
2025-11-26
Launch site
NSC
Launch vehicle
Mass (kg)
RCS (m²)

External: N2YO · Heavens-Above · Gunter

§ Orbital elements

Epoch: 2026-09-20T14:03:05.930784Z

Period
96.38 min
Inclination
97.7488°
Eccentricity
0.0014722
Mean motion
14.94134867 rev/d
Perigee alt
574.8 km
Apogee alt
595.3 km
Semi-major
6,963.2 km
B*
9.3928e-5
RAAN
191.6849°
Arg perigee
63.2979°
Mean anomaly
296.9746°
Rev number
4,447

§ Raw data

JACK K1 66659U 25274K   26263.58548531  .00000949  00000+0  93928-4 0  99962 66659  97.7488 191.6849 0014722  63.2979 296.9746 14.94134867 44476

JSON: /api/v1/satellites/66659 · /tle

For live sub-satellite position, see the globe view (requires WebGL).

§ Visibility from observer

Set your observer location to see the next 7 days of passes ≥ 10°. The values pass through the URL so the page stays shareable.

No JS? Fill the form by hand. The geolocation button needs JavaScript.